Regional Weather Roundup
Issued by NWS

Home | Current Version | Previous Version | Text Only | Print | Product List | Glossary On
Versions: 1 2 3 4 5 6 7 8 9 10 11 12 13 14 15 16 17 18 19 20 21 22 23 24 25 26 27 28 29 30 31 32 33 34 35 36 37 38 39 40 41 42 43 44 45 46 47 48 49 50
000
ASUS44 KJAN 290403
RWRMS

MISSISSIPPI HOURLY WEATHER ROUNDUP
NATIONAL WEATHER SERVICE JACKSON MS
1100 PM CDT THU MAY 28 2015

NOTE: "FAIR: INDICATES FEW OR NO CLOUDS BELOW 12,000 FEET WITH NO
SIGNIFICANT WEATHER AND/OR OBSTRUCTIONS TO VISIBILITY.

MSZ001>002-007>008-010>013-018>021-025>028-034>036-290500-
NORTHWEST MISSISSIPPI

CITY           SKY/WX    TMP DP  RH WIND       PRES   REMARKS
CLARKSDALE       N/A     73  72  94 MISG      30.07S
CLEVELAND      FAIR      73  72  95 E6        30.05S
GREENWOOD      PTCLDY    73  67  81 E7        30.06F
GREENVILLE     PTCLDY    74  70  87 SE6       30.03F
OLIVE BRANCH   CLEAR     70  70 100 SE5       30.09R
OXFORD         FAIR      70  66  88 SE7       30.10S
TUNICA         MOCLDY    73  68  83 SE6       30.07S
$$

MSZ003>006-009-014>017-022>024-029>033-037>039-290500-
NORTHEAST MISSISSIPPI

CITY           SKY/WX    TMP DP  RH WIND       PRES   REMARKS
COLUMBUS AFB   PTCLDY    69  69 100 SE5       30.11S
CORINTH        FAIR      72  66  83 E7        30.11S
GOLDN TRIANGLE MOCLDY    73  68  83 SE10      30.10S
STARKVILLE     FAIR      72  70  94 E7        30.10F
TUPELO         PTCLDY    72  66  81 SE8       30.11S
$$

MSZ040-058-290500-
CENTRAL MISSISSIPPI

CITY           SKY/WX    TMP DP  RH WIND       PRES   REMARKS
JACKSON INTL   PTCLDY    75  68  78 E7        30.06F
JACKSON HAWKNS CLEAR     75  68  78 E5        30.06F
MERIDIAN KEY   MOCLDY    72  69  90 S7        30.11F
MERIDIAN NAS   MOCLDY    70  68  93 SE7       30.12F
RAYMOND        FAIR      72  66  83 CALM      30.05F
VICKSBURG      MOCLDY    76  69  79 E8        30.03F
$$

MSZ059>079-290500-
SOUTH MISSISSIPPI

CITY           SKY/WX    TMP DP  RH WIND       PRES   REMARKS
BROOKHAVEN       N/A     75  75 100 SE3       30.09R
HATTIESBURG    PTCLDY    74  71  91 SE5       30.10F
MCCOMB         CLEAR     75  72  90 SE8       30.07S
NATCHEZ        PTCLDY    75  68  78 E9        30.01F
PINE BELT      PTCLDY    73  70  88 SE6       30.11F
$$

MSZ080>082-290500-
COASTAL MISSISSIPPI

CITY           SKY/WX    TMP DP  RH WIND       PRES   REMARKS
BILOXI         CLEAR     79  71  76 SE6       30.09F
PASCAGOULA     PTCLDY    70  69  97 CALM      30.11S
GULFPORT       CLEAR     79  71  76 SE9       30.09S
$$



USA.gov is the U.S. government's official web portal to all federal, state and local government web resources and services.